SAUDISAT 1C (SO-50)

Last updated on Fri Dec 19 2025 00:03:11 GMT+0000 (Coordinated Universal Time)

1 27607U 02058C 25352.33731994 .00001674 00000+0 21754-3 0 9992 2 27607 64.5543 328.2974 0072484 295.5515 63.8109 14.82414230237641
UTC large
Height (km)
Speed (km/s)
/
Latitude / Longitude
Inclination (degrees)
Orbital Period (minutes)
Azimuth
Elevation
Range (km)
Doppler Factor

Next 0 passes for location: London (51.5072 / 0.1276)

Sorry there are no passes over London.